This demonstration page uses our WeatherBlox Daily Observations layout. Learn more.

Left ArrowRight Arrow

39.08367, -84.50855

Hourly Observations for January 4, 2021

Temp ( °F °C ) Dew Point ( °F °C ) Humidity (%) Winds ( mph kmh ) Pressure ( in mb ) Visibility ( mi km ) Precip ( " mm )
12:53 am 00:53 Cloudy 35 1.7 30 -1.1 82 82 Calm 30.08 1019 10 16.0934 0 0
1:53 am 01:53 Cloudy 35 1.7 31 -0.6 85 85 Calm 30.08 1019 10 16.0934 0 0
2:53 am 02:53 Cloudy 35 1.7 31 -0.6 85 85 WSW 5 7 30.09 1019 10 16.0934 0 0
3:53 am 03:53 Cloudy 35 1.7 31 -0.6 85 85 Calm 30.1 1019 10 16.0934 0 0
4:53 am 04:53 Cloudy 35 1.7 31 -0.6 85 85 SW 6 9 30.1 1019 10 16.0934 0 0
5:53 am 05:53 Cloudy 34 1.1 32 0 92 92 SSW 3 6 30.11 1020 10 16.0934 0.001 0.001
6:14 am 06:14 Partly Cloudy 34 1.1 32 0 92 92 Calm 30.13 1020 10 16.0934 0 0
6:53 am 06:53 Mostly Clear with Mist and Fog 32 0 31 -0.6 96 96 Calm 30.11 1020 4 6.43736 0 0
7:04 am 07:04 Mostly Cloudy with Mist and Fog 31 -0.6 31 -0.6 100 100 Calm 30.14 1021 5 8.0467 0 0
7:12 am 07:12 Partly Cloudy with Mist and Fog 32 0 31 -0.6 96 96 Calm 30.14 1021 5 8.0467 0 0
7:53 am 07:53 Cloudy with Mist and Fog 32 0 31 -0.6 96 96 Calm 30.12 1020 6 9.65604 0 0
8:53 am 08:53 Cloudy with Mist and Fog 33 0.6 32 0 96 96 Calm 30.11 1020 6 9.65604 0 0
9:53 am 09:53 Cloudy 36 2.2 33 0.6 89 89 SSW 3 6 30.12 1020 8 12.87472 0 0
10:53 am 10:53 Cloudy 37 2.8 31 -0.6 79 79 Calm 30.11 1020 10 16.0934 0 0
11:53 am 11:53 Cloudy 39 3.9 31 -0.6 73 73 Calm 30.08 1019 10 16.0934 0 0
12:53 pm 12:53 Cloudy 39 3.9 31 -0.6 73 73 S 6 9 30.04 1017 10 16.0934 0 0
1:53 pm 13:53 Cloudy 41 5 32 0 70 70 VRB 3 6 30.02 1017 10 16.0934 0 0
2:53 pm 14:53 Partly Cloudy 42 5.6 32 0 68 68 Calm 30.01 1016 10 16.0934 0 0
3:53 pm 15:53 Partly Cloudy 44 6.7 31 -0.6 60 60 Calm 30.01 1016 10 16.0934 0 0
4:53 pm 16:53 Sunny 44 6.7 31 -0.6 60 60 Calm 30 1016 10 16.0934 0 0
5:53 pm 17:53 Clear 37 2.8 30 -1.1 76 76 Calm 30 1016 10 16.0934 0 0
6:53 pm 18:53 Clear 34 1.1 30 -1.1 85 85 Calm 29.99 1016 10 16.0934 0 0
7:53 pm 19:53 Clear 32 0 29 -1.7 88 88 Calm 29.99 1016 10 16.0934 0 0
8:53 pm 20:53 Clear 31 -0.6 29 -1.7 92 92 Calm 29.98 1015 8 12.87472 0 0
9:53 pm 21:53 Mostly Cloudy 30 -1.1 28 -2.2 92 92 Calm 29.97 1015 7 11.26538 0 0
10:53 pm 22:53 Mostly Cloudy 31 -0.6 29 -1.7 92 92 Calm 29.96 1015 8 12.87472 0 0
11:53 pm 23:53 Mostly Clear with Mist and Fog 30 -1.1 29 -1.7 96 96 Calm 29.94 1014 1.5 2.41401 0 0

Powered by AerisWeather